DW4360 Weather Reports


time (UTC)temp
F
wind
direction
speed
knots
gust
knots
rain 1hr
in
rain 24hr
in
rain mn
in
humidity
%
barometer
mb
20200531064152 53 325 0.0 0.0 0.00 0.00 0.34 94 1015.3
20200531063151 53 198 0.0 0.0 0.00 0.00 0.33 94 1015.2
20200531062150 53 198 0.0 0.0 0.00 0.00 0.33 94 1015.2
20200531061149 53 191 0.0 0.0 0.00 0.00 0.33 94 1015.3
20200531060148 53 190 0.0 0.0 0.00 0.00 0.33 94 1015.2
20200531055147 53 190 0.0 0.0 0.00 0.00 0.33 94 1015.2
20200531054145 53 190 0.0 0.0 0.00 0.00 0.33 94 1015.1
20200531053144 53 190 0.0 0.0 0.00 0.00 0.33 94 1015.0
20200531052143 53 190 0.0 0.0 0.00 0.00 0.33 94 1014.8
20200531051143 53 190 0.0 0.0 0.00 0.00 0.33 94 1014.8
20200531050142 53 190 1.7 0.0 0.00 0.00 0.33 94 1014.7
20200531045140 53 220 0.0 0.0 0.00 0.00 0.33 94 1014.6
20200531044140 53 220 0.0 0.0 0.00 0.00 0.33 94 1014.6
20200531043138 53 220 0.0 0.0 0.00 0.00 0.33 93 1014.6
20200531042137 53 220 0.0 0.0 0.00 0.00 0.33 93 1014.5
20200531041137 54 220 0.0 0.0 0.00 0.00 0.33 93 1014.5
20200531040135 54 220 0.0 0.0 0.00 0.00 0.33 93 1014.4
20200531035134 54 220 0.0 0.0 0.00 0.00 0.33 93 1014.1
20200531034134 54 220 0.0 0.0 0.00 0.00 0.33 94 1014.2
20200531033132 54 220 0.0 0.0 0.00 0.00 0.33 93 1014.0
20200531032131 55 220 0.0 0.0 0.00 0.00 0.33 94 1014.2
20200531031131 55 220 0.0 0.0 0.00 0.00 0.33 94 1014.0
20200531030130 55 220 0.0 0.0 0.00 0.00 0.33 94 1014.0
20200531025129 55 220 0.0 0.0 0.00 0.00 0.33 94 1014.0
20200531024127 55 220 0.0 0.0 0.00 0.00 0.33 94 1013.9
20200531023126 55 220 0.0 0.0 0.00 0.00 0.33 94 1013.9
20200531022125 55 220 0.0 0.0 0.00 0.00 0.33 94 1013.7
20200531021125 55 280 0.0 0.0 0.00 0.00 0.33 94 1013.5
20200531020123 55 280 0.0 0.0 0.00 0.00 0.33 93 1013.5
20200531015122 55 281 0.0 0.0 0.00 0.00 0.33 93 1013.5
20200531014121 55 281 0.0 0.0 0.00 0.00 0.33 93 1013.4
20200531013121 54 281 0.0 0.0 0.00 0.00 0.33 93 1013.2
20200531012119 54 281 0.0 0.0 0.00 0.00 0.33 93 1013.3
20200531011119 54 281 0.0 0.0 0.00 0.00 0.33 92 1013.2
20200531010118 55 281 0.0 0.0 0.00 0.00 0.33 92 1013.1
20200531005116 55 281 0.0 0.0 0.00 0.00 0.33 92 1013.1
20200531004115 55 281 0.0 0.0 0.00 0.00 0.33 92 1013.2
20200531003115 55 257 0.0 0.0 0.00 0.00 0.33 92 1013.1
20200531002113 55 252 0.0 0.0 0.00 0.00 0.33 92 1013.0
20200531001112 55 252 0.0 0.0 0.00 0.00 0.33 92 1013.1
20200531000111 55 252 0.0 0.0 0.00 0.00 0.33 92 1013.0
20200530235110 55 252 0.0 0.0 0.00 0.00 0.33 92 1013.1
20200530234109 55 252 0.0 0.0 0.00 0.00 0.33 92 1013.1
20200530233108 55 252 0.0 0.0 0.00 0.00 0.32 90 1013.3
20200530232107 55 323 0.9 0.0 0.00 0.00 0.31 89 1011.8
20200530231106 56 265 0.0 0.0 0.00 0.00 0.29 89 1012.7
20200530230105 56 182 0.0 0.0 0.00 0.00 0.25 86 1013.6
20200530225104 57 182 0.0 0.0 0.00 0.00 0.17 86 1013.8
20200530224103 58 182 0.0 0.0 0.00 0.00 0.13 84 1014.0
20200530223102 59 182 0.0 0.0 0.00 0.00 0.07 83 1013.5
20200530222101 59 182 0.0 0.0 0.00 0.00 0.04 81 1013.5
20200530221100 60 182 0.0 0.0 0.00 0.00 0.04 78 1012.9
20200530220100 60 171 0.0 0.0 0.00 0.00 0.03 75 1012.3
20200530215058 61 169 0.9 0.0 0.00 0.00 0.03 70 1011.8
20200530214057 61 328 0.0 0.0 0.00 0.00 0.03 67 1011.3
20200530213056 61 316 0.0 0.0 0.00 0.00 0.03 71 1010.7
20200530212055 61 329 0.0 0.0 0.00 0.00 0.03 67 1010.1
20200530211054 62 310 1.7 0.0 0.00 0.00 0.03 61 1010.0
20200530210053 62 342 2.6 0.0 0.00 0.00 0.03 58 1009.7
20200530205052 62 325 1.7 0.0 0.00 0.00 0.03 58 1009.8
20200530204051 62 311 5.2 0.0 0.00 0.00 0.03 61 1009.5
20200530203050 62 333 0.0 0.0 0.00 0.00 0.03 66 1009.7
20200530202049 62 325 0.0 0.0 0.00 0.00 0.03 66 1009.4
20200530201048 62 333 2.6 0.0 0.00 0.00 0.03 63 1009.4
20200530200047 63 54 0.0 0.0 0.00 0.00 0.03 64 1009.4
20200530195046 62 206 0.0 0.0 0.00 0.00 0.03 67 1009.5
20200530194045 62 205 0.0 0.0 0.00 0.00 0.03 66 1009.5
20200530193044 62 212 1.7 0.0 0.00 0.00 0.03 65 1009.4
20200530192044 62 306 0.0 0.0 0.00 0.00 0.03 64 1009.5
20200530191042 62 296 0.0 0.0 0.00 0.00 0.03 63 1009.6
20200530190041 62 327 7.8 0.0 0.00 0.00 0.03 64 1009.6
20200530185040 61 17 3.5 0.0 0.00 0.00 0.03 65 1009.5
20200530184039 61 318 0.0 0.0 0.00 0.00 0.03 72 1009.4
20200530183038 60 157 0.0 0.0 0.00 0.00 0.03 75 1009.1
20200530182037 59 334 0.0 0.0 0.00 0.00 0.03 75 1009.2
20200530181036 58 19 0.0 0.0 0.00 0.00 0.03 76 1008.9
20200530180035 58 319 0.0 0.0 0.00 0.00 0.03 76 1009.0
20200530175034 58 342 0.0 0.0 0.00 0.00 0.03 76 1008.9
20200530174033 58 319 0.0 0.0 0.00 0.00 0.03 77 1008.8
20200530173032 58 326 3.5 0.0 0.00 0.00 0.02 77 1008.8
20200530172031 58 316 0.0 0.0 0.00 0.00 0.02 77 1008.5
20200530171029 58 321 0.0 0.0 0.00 0.00 0.02 77 1008.6
20200530170029 58 319 0.0 0.0 0.00 0.00 0.02 79 1008.3
20200530165027 57 34 0.0 0.0 0.00 0.00 0.02 80 1008.1
20200530164027 57 305 2.6 0.0 0.00 0.00 0.02 82 1007.9
20200530163025 57 306 0.0 0.0 0.00 0.00 0.02 83 1008.1
20200530162025 56 349 2.6 0.0 0.00 0.00 0.02 86 1008.5
20200530161024 56 42 0.0 0.0 0.00 0.00 0.02 86 1008.5
20200530160023 55 132 1.7 0.0 0.00 0.00 0.02 87 1008.4
20200530155021 55 132 0.0 0.0 0.00 0.00 0.02 88 1008.5
20200530154020 55 132 0.0 0.0 0.00 0.00 0.02 90 1008.6
20200530153019 55 132 0.0 0.0 0.00 0.00 0.02 89 1009.0
20200530152018 54 132 0.0 0.0 0.00 0.00 0.02 89 1009.0
20200530151017 54 132 0.0 0.0 0.00 0.00 0.02 89 1008.6
20200530150016 54 132 0.0 0.0 0.00 0.00 0.02 89 1008.8
20200530145015 54 132 0.0 0.0 0.00 0.00 0.02 89 1009.6
20200530144015 54 132 0.0 0.0 0.00 0.00 0.02 88 1009.1
20200530143013 55 132 0.0 0.0 0.00 0.00 0.02 87 1008.9
20200530142012 55 130 0.9 0.0 0.00 0.00 0.02 86 1008.9
20200530141012 55 130 0.9 0.0 0.00 0.00 0.02 85 1009.0
20200530140011 56 244 0.0 0.0 0.00 0.00 0.01 83 1008.4
20200530135010 56 244 0.0 0.0 0.00 0.00 0.01 82 1009.4
20200530134008 56 246 0.0 0.0 0.00 0.00 0.01 80 1009.9
20200530133007 57 246 0.0 0.0 0.00 0.00 0.01 79 1010.0
20200530132006 57 246 0.0 0.0 0.00 0.00 0.01 77 1010.5
20200530131005 57 246 0.0 0.0 0.00 0.00 0.00 71 1010.6
20200530130004 57 246 0.0 0.0 0.00 0.00 0.00 71 1010.7
20200530125003 57 313 0.0 0.0 0.00 0.00 0.00 70 1009.2
20200530124003 57 313 0.0 0.0 0.00 0.00 0.00 69 1008.6
20200530123001 58 313 0.0 0.0 0.00 0.00 0.00 69 1008.7
20200530122000 58 313 0.0 0.0 0.00 0.00 0.00 68 1008.7
20200530120959 58 313 0.0 0.0 0.00 0.00 0.00 67 1008.7
20200530115958 58 325 0.0 0.0 0.00 0.00 0.00 66 1008.6
20200530114957 58 325 0.0 0.0 0.00 0.00 0.00 66 1008.5
20200530113956 59 30 0.0 0.0 0.00 0.00 0.00 65 1008.4
20200530112955 59 351 0.0 0.0 0.00 0.00 0.00 65 1008.5
20200530111954 59 348 0.0 0.0 0.00 0.00 0.00 65 1008.5
20200530110953 59 348 0.0 0.0 0.00 0.00 0.00 65 1008.4
20200530105952 59 348 0.0 0.0 0.00 0.00 0.00 64 1008.4
20200530104951 60 348 0.0 0.0 0.00 0.00 0.00 64 1008.1
20200530103950 60 317 0.0 0.0 0.00 0.00 0.00 63 1008.0
20200530102949 60 317 0.0 0.0 0.00 0.00 0.00 63 1008.0
20200530101948 60 317 0.0 0.0 0.00 0.00 0.00 63 1008.0
20200530100947 60 322 0.0 0.0 0.00 0.00 0.00 62 1008.1
20200530095946 60 323 0.0 0.0 0.00 0.00 0.00 61 1008.4
20200530094945 60 324 0.0 0.0 0.00 0.00 0.00 61 1008.0
20200530093944 60 336 0.0 0.0 0.00 0.00 0.00 60 1007.9
20200530092943 61 322 0.0 0.0 0.00 0.00 0.00 60 1007.9
20200530091942 61 325 0.0 0.0 0.00 0.00 0.00 59 1008.0
20200530090941 61 309 0.0 0.0 0.00 0.00 0.00 58 1008.1
20200530085940 61 327 0.0 0.0 0.00 0.00 0.00 58 1007.9
20200530084939 61 322 0.0 0.0 0.00 0.00 0.00 57 1008.1
20200530083938 62 345 0.0 0.0 0.00 0.00 0.00 56 1008.1
20200530082937 62 333 0.0 0.0 0.00 0.00 0.00 56 1008.1
20200530081936 62 342 0.0 0.0 0.00 0.00 0.00 57 1008.1
20200530080935 62 342 0.0 0.0 0.00 0.00 0.00 57 1008.1
20200530075934 63 323 0.0 0.0 0.00 0.00 0.00 56 1008.3
20200530074933 63 323 0.0 0.0 0.00 0.00 0.00 56 1008.2
20200530073932 63 323 0.0 0.0 0.00 0.00 0.00 55 1008.1
20200530072931 64 323 0.0 0.0 0.00 0.00 0.00 56 1008.4
20200530071930 64 323 0.0 0.0 0.00 0.00 0.00 55 1008.5
20200530070929 64 323 0.0 0.0 0.00 0.00 0.00 55 1008.4
20200530065928 65 319 0.0 0.0 0.00 0.00 0.00 55 1008.5
20200530064927 65 319 0.0 0.0 0.00 0.00 0.00 54 1008.5